DMSP 5D-2 F13 DEB

Satellite information

Favourite Embed

Satellite Type and Status

DEBRISIN ORBIT

Key statistics

Satellite DMSP 5D-2 F13 DEB at a glance.

Uptime

11064

Days in orbit

Revolutions

≈ 14.5

Per day

Orbit

SSO

Sun Synchronous Orbit

Inclination

98.6

Latest

Satellite identification and parameters

Extended collection of information and parameters for DMSP 5D-2 F13 DEB.

Object identification

Identified? True

Debris? True

Object name: DMSP 5D-2 F13 DEB

International designator: 1995-015EJ

Object number (NORAD): 40575

Object ID (CCSDS): 40575

Country: UNITED STATES OF AMERICA (US)

Current information (Y/N): Y

RCS size: SMALL

Orbital parameters

Period: 99.495 minutes

Inclination: 98.6074 deg

SMA: 7112.577 km

Apoapsis: 745.467 km

Periapsis: 723.418 km

RAAN: 229.8274 deg

Eccentricy: 0.00155

Argument of periapsis: 135.8343 deg

Mean anomaly: 224.409 deg

Mean motion: 14.4731233 rev/day

Mean motion (dot): 0.00004879 rev/day2

B* drag term: 0.0013427 1/REarth

Two-line elements (TLE)

Creation date: July 8, 2025, 2:27 a.m.

Reference frame: TEME

Reference center: EARTH

Epoch: July 7, 2025, 10:20 p.m. UTC

TLE line 0: 0 DMSP 5D-2 F13 DEB

TLE line 1: 1 40575U 95015EJ 25188.93093040 .00004879 00000-0 13427-2 0 9990

TLE line 2: 2 40575 98.6074 229.8274 0015500 135.8343 224.4090 14.47312330534572

Live tracking on map

Real-time ground track for satellite DMSP 5D-2 F13 DEB.

In-orbit conjunctions

There are no conjunctions computed for DMSP 5D-2 F13 DEB, at the moment. Check back to stay up to date, as we update our databases every day.

Go to all conjunctions

Associated space launch

Military meteorological satellite

DMSP 5D-2 F13 DEB was lifted into orbit during the mission ‘Atlas E | DMSP-5D2 F13’, on board a Atlas E space rocket.

The launch took place on March 24, 1995, 2:05 p.m. from Space Launch Complex 3W.

For more information about the launch, click the button.

Launch to space Atlas E | DMSP-5D2 F13
Atlas E | DMSP-5D2 F13

Agency: N/A

Status: Launch Successful

Launch date: March 24, 1995, 2:05 p.m. UTC

Rocket: Atlas E

Launch pad: Space Launch Complex 3W

Location: Vandenberg SFB, CA, USA

...

Latest news about this satellite

There are no fresh news available about this satellite. Check back as we update our databases every day.


Newsletter sign-up

Weekly statistics, charts and insights to help you stay on top of the space industry.